Weather History for Kansas City International, MO

Change the Weather History Date:

Saturday, July 6, 2013

  Actual Average Record
Temperature  
Mean Temperature 79 °F 78 °F  
Max Temperature 89 °F 88 °F 104 °F (2012)
Min Temperature 69 °F 68 °F 54 °F (1967)
Degree Days  
Heating Degree Days 0 0  
Month to date heating degree days 0 0  
Since 1 June heating degree days 17 9  
Since 1 July heating degree days 0 0  
Cooling Degree Days 14 13  
Month to date cooling degree days 48 76  
Year to date cooling degree days 429 458  
Since 1 June cooling degree days 324 342  
Growing Degree Days 29 (Base 50)    
Moisture  
Dew Point 62 °F    
Average Humidity 56    
Maximum Humidity 70    
Minimum Humidity 41    
Precipitation  
Precipitation T in 0.16 in 5.08 in (1986)
Month to date precipitation T 0.96  
Year to date precipitation 18.05 20.02  
Snow  
Snow 0.00 in 0.00 in 0.00 in ()
Month to date snowfall 0.0 0.0  
Since 1 June snowfall 0.0 0.0  
Since 1 July snowfall 0.0 0.0  
Snow Depth 0.00 in    
Sea Level Pressure  
Sea Level Pressure 29.91 in    
Wind  
Wind Speed 14 mph (South)    
Max Wind Speed 24 mph    
Max Gust Speed 30 mph    
Visibility 10 miles    
Events Rain    
T = Trace of Precipitation, MM = Missing Value Source: NWS Daily Summary

Daily Weather History Graph

Daily Weather History Graph

Search for Another Location

Airport:

Trip Planner

Search our weather history database for the weather conditions in past years. The results will help you decide how hot, cold, wet, or windy it might be!

Date:

Astronomy

Jul. 06, 2013 Rise Set
Actual Time 5:58 AM CDT 8:48 PM CDT
Civil Twilight 5:26 AM CDT 9:20 PM CDT
Nautical Twilight 4:46 AM CDT 10:00 PM CDT
Astronomical Twilight 4:00 AM CDT 10:46 PM CDT
Moon 4:45 AM CDT (7/6) 7:30 PM CDT (7/6)
Length of Visible Light 15h 53m
Length of Day
14h 49m
Waning Crescent, 2% of the Moon is Illuminated
Jul 6
Waning Crescent
Jul 8
New
Jul 15
First Quarter
Jul 22
Full
Jul 29
Last Quarter

Hourly Weather History & Observations

Time (CDT) Temp. Heat Index Dew Point Humidity Pressure Visibility Wind Dir Wind Speed Gust Speed Precip Events Conditions
12:53 AM 75.9 °F - 59.0 °F 56% 29.91 in 10.0 mi SSE 13.8 mph - N/A   Clear
1:53 AM 73.0 °F - 59.0 °F 61% 29.91 in 10.0 mi SSE 10.4 mph - N/A   Clear
2:53 AM 72.0 °F - 59.0 °F 64% 29.91 in 10.0 mi SSE 10.4 mph - N/A   Clear
3:53 AM 71.1 °F - 59.0 °F 66% 29.92 in 10.0 mi SSE 10.4 mph - N/A   Clear
4:53 AM 70.0 °F - 59.0 °F 68% 29.92 in 10.0 mi SSE 10.4 mph - N/A   Clear
5:53 AM 70.0 °F - 59.0 °F 68% 29.93 in 10.0 mi SSE 10.4 mph - N/A   Scattered Clouds
6:53 AM 70.0 °F - 59.0 °F 68% 29.94 in 10.0 mi South 9.2 mph - N/A   Mostly Cloudy
7:53 AM 73.0 °F - 60.1 °F 64% 29.94 in 10.0 mi South 10.4 mph - N/A   Mostly Cloudy
8:53 AM 75.0 °F - 62.1 °F 64% 29.95 in 10.0 mi SSW 13.8 mph - N/A   Mostly Cloudy
9:53 AM 80.1 °F 81.5 °F 63.0 °F 56% 29.94 in 10.0 mi South 16.1 mph - N/A   Mostly Cloudy
10:53 AM 80.1 °F 81.5 °F 63.0 °F 56% 29.93 in 10.0 mi South 13.8 mph 21.9 mph N/A   Overcast
11:53 AM 84.0 °F 84.9 °F 63.0 °F 49% 29.91 in 9.0 mi South 16.1 mph 25.3 mph N/A   Overcast
12:53 PM 87.1 °F 88.3 °F 64.0 °F 46% 29.89 in 10.0 mi South 20.7 mph 27.6 mph N/A   Mostly Cloudy
1:53 PM 88.0 °F 89.3 °F 64.0 °F 45% 29.88 in 9.0 mi South 17.3 mph 26.5 mph N/A   Mostly Cloudy
2:53 PM 89.1 °F 90.0 °F 63.0 °F 42% 29.88 in 10.0 mi South 19.6 mph 25.3 mph N/A   Overcast
3:53 PM 89.1 °F 90.3 °F 64.0 °F 43% 29.88 in 10.0 mi South 18.4 mph 24.2 mph N/A   Mostly Cloudy
4:53 PM 84.9 °F 86.1 °F 64.0 °F 49% 29.88 in 10.0 mi SSW 15.0 mph - N/A   Mostly Cloudy
5:53 PM 84.0 °F 85.4 °F 64.0 °F 51% 29.88 in 10.0 mi SSW 17.3 mph - N/A   Mostly Cloudy
6:53 PM 81.0 °F 82.2 °F 63.0 °F 54% 29.88 in 10.0 mi SSW 11.5 mph - N/A   Mostly Cloudy
7:53 PM 79.0 °F - 62.1 °F 56% 29.88 in 10.0 mi South 12.7 mph - N/A   Mostly Cloudy
8:53 PM 79.0 °F - 60.1 °F 52% 29.89 in 10.0 mi South 12.7 mph - 0.00 in Rain Light Rain
9:53 PM 79.0 °F - 61.0 °F 54% 29.89 in 10.0 mi South 12.7 mph - 0.00 in   Partly Cloudy
10:53 PM 78.1 °F - 62.1 °F 58% 29.90 in 10.0 mi South 10.4 mph - N/A   Scattered Clouds
11:53 PM 77.0 °F - 63.0 °F 62% 29.91 in 10.0 mi South 12.7 mph - 0.00 in   Overcast